Reading, PA

1:35 AM EDT on August 25, 2016 (GMT -0400)
Reading Regional-Spaatz

Weather History for KRDG - March, 2013

Change the Weather History Date:

Friday, March 1, 2013

  Actual Average Record
Temperature  
Mean Temperature 38 °F 36 °F  
Max Temperature 44 °F 45 °F 74 °F (1972)
Min Temperature 32 °F 27 °F 6 °F (1980)
Degree Days  
Heating Degree Days 27 29  
Month to date heating degree days 27 29  
Since 1 July heating degree days 3738 4071  
Cooling Degree Days 0 0  
Month to date cooling degree days 0 0  
Year to date cooling degree days 0 0  
Moisture  
Dew Point 27 °F    
Average Humidity 69    
Maximum Humidity 89    
Minimum Humidity 49    
Precipitation  
Precipitation 0.00 in 0.08 in 1.68 in (1954)
Month to date precipitation 0.00 0.08  
Year to date precipitation 4.94 5.61  
Sea Level Pressure  
Sea Level Pressure 29.78 in    
Wind  
Wind Speed 10 mph (NW)    
Max Wind Speed 18 mph    
Max Gust Speed 25 mph    
Visibility 10 miles    
Events      
T = Trace of Precipitation, MM = Missing Value Source: NWS Daily Summary

Daily Weather History Graph

Daily Weather History Graph

Search for Another Location

Airport or City:

Trip Planner

Search our weather history database for the weather conditions in past years. The results will help you decide how hot, cold, wet, or windy it might be!

Date:

Astronomy

Mar. 01, 2013 Rise Set
Actual Time 6:37 AM EST 5:55 PM EST
Civil Twilight 6:09 AM EST 6:23 PM EST
Nautical Twilight 5:38 AM EST 6:54 PM EST
Astronomical Twilight 5:06 AM EST 7:26 PM EST
Moon 10:27 PM EST (3/1) 8:21 AM EST (3/1)
Length of Visible Light 12h 13m
Length of Day
11h 18m
Waning Gibbous, 83% of the Moon is Illuminated
Mar 1
Waning Gibbous
Mar 4
Last Quarter
Mar 11
New
Mar 19
First Quarter
Mar 27
Full

Hourly Weather History & Observations

Time (EST) Temp. Windchill Dew Point Humidity Pressure Visibility Wind Dir Wind Speed Gust Speed Precip Events Conditions
12:54 AM 33.1 °F 28.7 °F 28.0 °F 82% 29.68 in 10.0 mi WSW 4.6 mph - N/A   Scattered Clouds
1:54 AM 36.0 °F 31.1 °F 30.0 °F 79% 29.69 in 10.0 mi West 5.8 mph - N/A   Overcast
3:54 AM 37.9 °F 32.1 °F 30.0 °F 73% 29.71 in 10.0 mi WNW 8.1 mph - N/A   Overcast
5:54 AM 37.9 °F 33.5 °F 28.9 °F 70% 29.73 in 10.0 mi WNW 5.8 mph - N/A   Overcast
6:54 AM 37.9 °F 32.7 °F 28.9 °F 70% 29.74 in 10.0 mi WNW 6.9 mph - N/A   Overcast
7:54 AM 39.0 °F 34.8 °F 30.0 °F 70% 29.76 in 10.0 mi WNW 5.8 mph - N/A   Mostly Cloudy
8:54 AM 41.0 °F 34.3 °F 28.9 °F 62% 29.77 in 10.0 mi NW 11.5 mph - N/A   Mostly Cloudy
10:54 AM 41.0 °F 34.7 °F 28.9 °F 62% 29.78 in 10.0 mi NNW 10.4 mph - N/A   Overcast
11:54 AM 42.1 °F 35.2 °F 28.9 °F 60% 29.78 in 10.0 mi NW 12.7 mph - N/A   Overcast
12:54 PM 43.0 °F 35.7 °F 27.0 °F 53% 29.77 in 10.0 mi NNW 15.0 mph - N/A   Overcast
2:54 PM 43.0 °F 36.4 °F 27.0 °F 53% 29.77 in 10.0 mi WNW 12.7 mph 19.6 mph N/A   Overcast
3:54 PM 43.0 °F 35.7 °F 26.1 °F 51% 29.78 in 10.0 mi NNW 15.0 mph - N/A   Overcast
4:54 PM 42.1 °F 34.9 °F 25.0 °F 51% 29.79 in 10.0 mi NNW 13.8 mph - N/A   Overcast
5:54 PM 39.9 °F 32.9 °F 25.0 °F 55% 29.81 in 10.0 mi NW 11.5 mph - N/A   Overcast
6:54 PM 39.9 °F 32.9 °F 25.0 °F 55% 29.82 in 10.0 mi NNW 11.5 mph - N/A   Overcast
7:54 PM 39.0 °F 33.4 °F 25.0 °F 57% 29.83 in 10.0 mi NNW 8.1 mph - N/A   Overcast
8:54 PM 37.9 °F 29.6 °F 24.1 °F 57% 29.84 in 10.0 mi NNW 13.8 mph - N/A   Overcast
9:54 PM 36.0 °F 29.6 °F 23.0 °F 59% 29.85 in 10.0 mi NNW 8.1 mph - N/A   Scattered Clouds
10:54 PM 33.1 °F 25.5 °F 21.9 °F 64% 29.86 in 10.0 mi NNW 9.2 mph - N/A   Clear
11:54 PM 33.1 °F 26.9 °F 23.0 °F 66% 29.85 in 10.0 mi NNW 6.9 mph - N/A   Overcast